{"data":{"norad_id":48370,"epoch":"2026-05-25T00:21:08.885088Z","epoch_age_seconds":70826,"freshness":"FRESH","line1":"1 48370U 21038T   26145.01468617  .00000746  00000+0  35800-4 0  9993","line2":"2 48370  53.1616 352.7661 0001144  90.8420 269.2713 15.31698391278912","mean_motion":15.31698391,"eccentricity":0.0001144,"inclination_deg":53.1616,"raan_deg":352.7661,"arg_perigee_deg":90.842,"mean_anomaly_deg":269.2713,"bstar":3.58e-5,"rev_number":27891,"period_min":94.013286718926,"perigee_km":469.96127949816,"apogee_km":471.52830365208,"semimajor_km":6848.8817915751,"source":"CELESTRAK","updated_at":"2026-05-25T13:38:16.687446Z"}}